Location: Bottom School (historical)
(37.9078°N, 89.3593°W)
Time: 07:14:19
(UTC+00:00)

CZ-2C R/B - Visible Passes

Search period start: 26 June 2022 00:00
Search period end: 06 July 2022 00:00
Orbit: 785 x 869 km, 98.2° (Epoch: 25 June)

Date Brightness Start Highest point End Pass type
(mag) Time Alt. Az. Time Alt. Az. Time Alt. Az.
26 Jun 5.7 08:57:13 10° E 08:59:49 14° ENE 09:02:25 10° NNE visible
28 Jun 3.9 09:56:49 10° SE 10:02:03 48° ENE 10:07:25 10° N visible
29 Jun 4.7 09:38:40 10° SE 09:43:31 33° ENE 09:48:27 10° N visible
30 Jun 5.3 09:20:48 10° ESE 09:25:02 23° ENE 09:29:19 10° NNE visible
01 Jul 5.6 09:03:20 10° E 09:06:36 16° ENE 09:09:54 10° NNE visible
02 Jul 6.0 08:46:51 10° ENE 08:48:13 11° ENE 08:49:36 10° NE visible
03 Jul 3.6 10:03:33 10° SSE 10:08:56 57° ENE 10:14:25 10° N visible
04 Jul 4.4 09:45:17 10° SE 09:50:23 39° ENE 09:55:33 10° N visible
05 Jul 5.0 09:27:16 10° ESE 09:31:52 27° ENE 09:36:30 10° NNE visible
